Hourly Weather Allada

Today, 26 November, Thursday

Time Temperature Precipitation Wind Pressure Humidity
00:00 +27°C° 0 mm 2 mps 750 mmHg 87%
01:00 +27°C° 0.1 mm 2 mps 750 mmHg 88%
02:00 +27°C° 0.1 mm 2 mps 749 mmHg 89%
03:00 +26°C° 0.1 mm 1 mps 749 mmHg 91%
04:00 +26°C° 0.1 mm 1 mps 749 mmHg 91%
05:00 +26°C° 0.1 mm 1 mps 750 mmHg 92%
06:00 +26°C° 0 mm 1 mps 750 mmHg 92%
07:00 +28°C° 0 mm 1 mps 751 mmHg 85%
08:00 +29°C° 0 mm 2 mps 751 mmHg 78%
09:00 +31°C° 0 mm 2 mps 751 mmHg 71%
10:00 +34°C° 0 mm 2 mps 750 mmHg 63%
11:00 +35°C° 0 mm 2 mps 750 mmHg 54%
12:00 +37°C° 0 mm 2 mps 750 mmHg 46%
13:00 +36°C° 0.7 mm 2 mps 749 mmHg 53%
14:00 +34°C° 0.7 mm 3 mps 748 mmHg 59%
15:00 +33°C° 0.7 mm 4 mps 747 mmHg 65%
16:00 +31°C° 0 mm 3 mps 748 mmHg 70%
17:00 +29°C° 0 mm 3 mps 749 mmHg 75%
18:00 +28°C° 0 mm 3 mps 749 mmHg 79%
19:00 +28°C° 0 mm 3 mps 750 mmHg 81%
20:00 +28°C° 0 mm 3 mps 750 mmHg 83%
21:00 +27°C° 0 mm 3 mps 751 mmHg 84%
22:00 +27°C° 0 mm 2 mps 751 mmHg 86%
23:00 +27°C° 0 mm 2 mps 750 mmHg 87%

Tomorrow, 27 November, Friday

Time Temperature Precipitation Wind Pressure Humidity
00:00 +27°C° 0 mm 2 mps 750 mmHg 88%
01:00 +27°C° 0 mm 2 mps 750 mmHg 89%
02:00 +26°C° 0 mm 2 mps 750 mmHg 90%
03:00 +26°C° 0 mm 2 mps 749 mmHg 91%
04:00 +26°C° 0 mm 2 mps 749 mmHg 92%
05:00 +26°C° 0 mm 1 mps 750 mmHg 93%
06:00 +26°C° 0 mm 1 mps 750 mmHg 94%
07:00 +27°C° 0 mm 2 mps 750 mmHg 86%
08:00 +29°C° 0 mm 2 mps 751 mmHg 79%
09:00 +31°C° 0 mm 3 mps 751 mmHg 71%
10:00 +33°C° 0.1 mm 3 mps 751 mmHg 67%
11:00 +34°C° 0.1 mm 3 mps 750 mmHg 63%
12:00 +35°C° 0.1 mm 3 mps 750 mmHg 58%
13:00 +34°C° 1.4 mm 3 mps 749 mmHg 62%
14:00 +33°C° 1.4 mm 4 mps 749 mmHg 66%
15:00 +32°C° 1.4 mm 4 mps 748 mmHg 69%
16:00 +30°C° 0.1 mm 4 mps 749 mmHg 74%
17:00 +29°C° 0.1 mm 4 mps 749 mmHg 79%
18:00 +28°C° 0.1 mm 4 mps 750 mmHg 83%
19:00 +28°C° 0 mm 3 mps 750 mmHg 85%
20:00 +27°C° 0 mm 3 mps 751 mmHg 86%
21:00 +27°C° 0 mm 2 mps 752 mmHg 88%
22:00 +27°C° 0 mm 2 mps 752 mmHg 89%
23:00 +27°C° 0 mm 2 mps 751 mmHg 90%

Day after tomorrow, 28 November, Saturday

Time Temperature Precipitation Wind Pressure Humidity
00:00 +27°C° 0 mm 2 mps 751 mmHg 91%
01:00 +26°C° 0 mm 2 mps 751 mmHg 92%
02:00 +26°C° 0 mm 2 mps 751 mmHg 92%
03:00 +26°C° 0 mm 1 mps 751 mmHg 93%
04:00 +26°C° 0 mm 1 mps 751 mmHg 94%
05:00 +26°C° 0 mm 1 mps 751 mmHg 94%
06:00 +26°C° 0 mm 1 mps 751 mmHg 94%
07:00 +27°C° 0 mm 1 mps 751 mmHg 86%
08:00 +29°C° 0 mm 2 mps 752 mmHg 78%
09:00 +31°C° 0 mm 2 mps 752 mmHg 70%
10:00 +32°C° 0.1 mm 2 mps 752 mmHg 66%
11:00 +32°C° 0.1 mm 2 mps 751 mmHg 63%
12:00 +34°C° 0.1 mm 2 mps 750 mmHg 60%
13:00 +34°C° 0.5 mm 2 mps 750 mmHg 61%
14:00 +34°C° 0.5 mm 2 mps 750 mmHg 63%
15:00 +33°C° 0.5 mm 3 mps 749 mmHg 65%
16:00 +31°C° 0.2 mm 3 mps 749 mmHg 72%
17:00 +29°C° 0.2 mm 2 mps 750 mmHg 78%
18:00 +28°C° 0.2 mm 2 mps 750 mmHg 85%
19:00 +27°C° 0 mm 2 mps 750 mmHg 87%
20:00 +27°C° 0 mm 2 mps 751 mmHg 89%
21:00 +27°C° 0 mm 2 mps 751 mmHg 91%
22:00 +26°C° 0.1 mm 1 mps 751 mmHg 92%
23:00 +26°C° 0.1 mm 1 mps 751 mmHg 93%

29 November, Sunday

Time Temperature Precipitation Wind Pressure Humidity
00:00 +26°C° 0.1 mm 1 mps 751 mmHg 93%
01:00 +26°C° 0 mm 1 mps 751 mmHg 93%
02:00 +26°C° 0 mm 2 mps 750 mmHg 93%
03:00 +26°C° 0 mm 2 mps 750 mmHg 93%
04:00 +26°C° 0 mm 2 mps 750 mmHg 94%
05:00 +26°C° 0 mm 2 mps 750 mmHg 94%
06:00 +26°C° 0 mm 2 mps 751 mmHg 95%
07:00 +27°C° 0 mm 2 mps 751 mmHg 87%
08:00 +29°C° 0 mm 2 mps 751 mmHg 79%
09:00 +31°C° 0 mm 2 mps 752 mmHg 71%
10:00 +32°C° 0 mm 2 mps 751 mmHg 65%
11:00 +35°C° 0 mm 2 mps 751 mmHg 59%
12:00 +36°C° 0 mm 2 mps 750 mmHg 54%
13:00 +35°C° 0.4 mm 2 mps 750 mmHg 57%
14:00 +34°C° 0.4 mm 3 mps 749 mmHg 61%
15:00 +33°C° 0.4 mm 3 mps 748 mmHg 64%
16:00 +31°C° 0.1 mm 3 mps 749 mmHg 70%
17:00 +30°C° 0.1 mm 3 mps 749 mmHg 76%
18:00 +28°C° 0.1 mm 3 mps 749 mmHg 82%
19:00 +28°C° 0 mm 3 mps 749 mmHg 84%
20:00 +27°C° 0 mm 2 mps 750 mmHg 87%
21:00 +27°C° 0 mm 2 mps 750 mmHg 89%
22:00 +27°C° 0 mm 2 mps 750 mmHg 90%
23:00 +27°C° 0 mm 2 mps 750 mmHg 91%

30 November, Monday

Time Temperature Precipitation Wind Pressure Humidity
00:00 +26°C° 0 mm 2 mps 750 mmHg 91%
01:00 +26°C° 0 mm 2 mps 750 mmHg 92%
02:00 +26°C° 0 mm 2 mps 750 mmHg 93%
03:00 +26°C° 0 mm 1 mps 750 mmHg 94%
04:00 +26°C° 0 mm 1 mps 750 mmHg 93%
05:00 +26°C° 0 mm 1 mps 750 mmHg 93%
06:00 +26°C° 0 mm 1 mps 751 mmHg 93%
07:00 +27°C° 0 mm 1 mps 751 mmHg 87%
08:00 +28°C° 0 mm 1 mps 751 mmHg 82%
09:00 +29°C° 0 mm 1 mps 752 mmHg 77%
10:00 +31°C° 0 mm 1 mps 751 mmHg 70%
11:00 +32°C° 0 mm 1 mps 751 mmHg 64%
12:00 +34°C° 0 mm 1 mps 750 mmHg 57%
13:00 +34°C° 0 mm 1 mps 750 mmHg 56%
14:00 +34°C° 0 mm 1 mps 749 mmHg 55%
15:00 +34°C° 0 mm 1 mps 749 mmHg 54%
16:00 +32°C° 0 mm 2 mps 749 mmHg 62%
17:00 +30°C° 0 mm 2 mps 749 mmHg 71%
18:00 +28°C° 0 mm 3 mps 749 mmHg 79%
19:00 +28°C° 0 mm 3 mps 750 mmHg 81%
20:00 +28°C° 0 mm 3 mps 750 mmHg 83%
21:00 +27°C° 0 mm 3 mps 751 mmHg 85%
22:00 +27°C° 0 mm 2 mps 751 mmHg 87%
23:00 +26°C° 0 mm 2 mps 751 mmHg 89%

1 December, Tuesday

Time Temperature Precipitation Wind Pressure Humidity
00:00 +26°C° 0 mm 1 mps 751 mmHg 91%
01:00 +26°C° 0 mm 1 mps 750 mmHg 92%
02:00 +26°C° 0 mm 1 mps 750 mmHg 93%
03:00 +26°C° 0 mm 1 mps 750 mmHg 94%
04:00 +25°C° 0 mm 1 mps 750 mmHg 95%
05:00 +25°C° 0 mm 1 mps 750 mmHg 95%
06:00 +25°C° 0 mm 1 mps 750 mmHg 96%
07:00 +27°C° 0 mm 1 mps 751 mmHg 87%
08:00 +29°C° 0 mm 2 mps 751 mmHg 79%
09:00 +31°C° 0 mm 2 mps 752 mmHg 70%
10:00 +31°C° 0.2 mm 2 mps 751 mmHg 68%
11:00 +32°C° 0.2 mm 2 mps 751 mmHg 66%
12:00 +32°C° 0.2 mm 2 mps 751 mmHg 63%
13:00 +32°C° 0.3 mm 2 mps 750 mmHg 63%
14:00 +32°C° 0.3 mm 2 mps 750 mmHg 63%
15:00 +32°C° 0.3 mm 2 mps 749 mmHg 62%
16:00 +31°C° 0.1 mm 2 mps 750 mmHg 68%
17:00 +30°C° 0.1 mm 2 mps 750 mmHg 73%
18:00 +28°C° 0.1 mm 2 mps 750 mmHg 79%
19:00 +28°C° 0 mm 2 mps 750 mmHg 81%
20:00 +27°C° 0 mm 2 mps 751 mmHg 84%
21:00 +27°C° 0 mm 3 mps 751 mmHg 86%
22:00 +27°C° 0 mm 2 mps 751 mmHg 87%
23:00 +27°C° 0 mm 2 mps 751 mmHg 89%
Show more